Regional Weather Roundup
Issued by NWS

Home | Current Version | Previous Version | Graphics & Text | Print | Product List | Glossary On
Versions: 1 2 3 4 5 6 7 8 9 10 11 12 13 14 15 16 17 18 19 20 21 22 23 24 25 26 27 28 29 30 31 32 33 34 35 36 37 38 39 40 41 42 43 44 45 46 47 48 49 50
000
ASUS43 KMKX 261600
RWRWI

WISCONSIN REGIONAL WEATHER ROUNDUP
NATIONAL WEATHER SERVICE MILWAUKEE/SULLIVAN WI
1100 AM CDT TUE SEP 26 2017

NOTE: "FAIR" INDICATES FEW OR NO CLOUDS BELOW 12,000 FEET WITH NO
SIGNIFICANT WEATHER AND/OR OBSTRUCTIONS TO VISIBILITY.

WIZ001-002-006>008-014>016-023>028-261700-
NORTHWEST WISCONSIN

CITY           SKY/WX    TMP DP  RH WIND       PRES   REMARKS
SUPERIOR ARPT  CLOUDY    56  55  99 NE12G25   29.91F
ASHLAND        CLOUDY    57  56  96 NE10      29.92R FOG
HAYWARD        CLOUDY    61  59  93 SW6       29.91S
SIREN          RAIN      59  57  92 W7        29.92R
CUMBERLAND     CLOUDY    59  55  88 SW8       29.92F
RICE LAKE      DRIZZLE   60  59  97 CALM      29.93F
CHETEK         CLOUDY    61  61  99 W3        29.92S
LADYSMITH      CLOUDY    64  63  97 SW5       29.93S
EAU CLAIRE     RAIN      63  63 100 W10       29.92S FOG
MENOMONIE      DRIZZLE   60  60 100 SW5       29.94R
NEW RICHMOND   CLOUDY    59  58  96 W9        29.94S
OSCEOLA        CLOUDY    60  60 100 W9        29.96S
$$

WIZ003>005-009-010-017-018-261700-
NORTH CENTRAL WISCONSIN

CITY           SKY/WX    TMP DP  RH WIND       PRES   REMARKS
MANITOWISH WTR NOT AVBL
ARBOR VITAE    LGT RAIN  65  64  95 SW5       29.92R
WOODRUFF       LGT RAIN  65  64  95 SW5       29.92R
RHINELANDER    CLOUDY    66  64  93 SW8       29.93S
EAGLE RIVER    CLOUDY    66  65  97 SW5       29.92S
LAND O LAKES   CLOUDY    65  65 100 SW3       29.93S
PHILLIPS       LGT RAIN  63  63 100 SW5       29.92R
TOMAHAWK       CLOUDY    64  63  97 CALM      29.93S
MEDFORD        CLOUDY    65  63  92 SW8       29.94R
MERRILL        DRIZZLE   68  65  93 S5        29.93S
$$

WIZ029-030-035-036-043>047-261700-
CENTRAL WISCONSIN

CITY           SKY/WX    TMP DP  RH WIND       PRES   REMARKS
WAUSAU         CLOUDY    68  65  90 S7        29.92S
MOSINEE        MOSUNNY   66  66 100 SW9       29.95S
MARSHFIELD     CLOUDY    68  63  84 W8        29.94R
STEVENS POINT  CLOUDY    66  66 100 SW5       29.94F
WAUPACA        CLOUDY    72  68  87 CALM      29.94F
WAUTOMA        CLOUDY    72  67  84 SW5       29.94F
WISC RAPIDS    CLOUDY    70  68  93 SW6       29.95R
CAMP DOUGLAS   NOT AVBL
$$

WIZ011>013-019>022-031-037>040-048>050-261700-
NORTHEAST WISCONSIN

CITY           SKY/WX    TMP DP  RH WIND       PRES   REMARKS
ANTIGO         CLOUDY    65  65  99 SW9       29.95S
SHAWANO        PTSUNNY   72  66  81 SW3       29.93S
OCONTO         CLOUDY    70  66  89 NW3       29.92R
STURGEON BAY   CLOUDY    73  64  73 SW6       29.92S
GREEN BAY      LGT RAIN  71  69  93 CALM      29.93R
MANITOWOC      CLOUDY    78  61  55 S12       29.92S HX  80
APPLETON       PTSUNNY   73  63  68 SW5       29.93S
CLINTONVILLE   CLOUDY    72  64  78 SW5       29.94S
OSHKOSH        CLOUDY    75  66  73 SW3       29.93S
$$

WIZ032>034-041-042-053>061-261700-
SOUTHWEST WISCONSIN

CITY           SKY/WX    TMP DP  RH WIND       PRES   REMARKS
LA CROSSE      CLOUDY    71  66  84 SW10      29.93S
SPARTA         CLOUDY    64  62  95 CALM      29.95S
VIROQUA        CLOUDY    67  67 100 W7        29.96S
BOSCOBEL       CLOUDY    72  68  87 W6        29.96R
PRAIRIE DU CHI LGT RAIN  68  66  91 SW5       29.96R
PLATTEVILLE    PTSUNNY   73  68  85 S5        29.97S
$$

WIZ056-057-062-063-064-067-068-261700-
SOUTH CENTRAL WISCONSIN

CITY           SKY/WX    TMP DP  RH WIND       PRES   REMARKS
REEDSBURG      CLOUDY    69  69 100 CALM      29.94S
BARABOO/DELLS  CLOUDY    69  65  86 CALM      29.95S
LONE ROCK      NOT AVBL
MINERAL POINT  CLOUDY    70  70 100 CALM      29.96F
MADISON        CLOUDY    73  64  73 VRB3      29.94S
MIDDLETON      CLOUDY    72  66  83 W3        29.96R
WATERTOWN      CLOUDY    77  64  64 S6        29.93S
MONROE         MOSUNNY   77  61  57 SW13      29.96R
JANESVILLE     PTSUNNY   82  63  51 SW14      29.94S HX  83
$$

WIZ051-052-058>065-066-070>072-261700-
SOUTHEAST WISCONSIN

CITY           SKY/WX    TMP DP  RH WIND       PRES   REMARKS
MILWAUKEE      LGT RAIN  81  62  52 SW10      29.94R HX  82
WAUKESHA       MOSUNNY   77  61  57 S6        29.96R
MILWAUKEE/TIMM MOSUNNY   81  57  44 S7        29.94S HX  81
RACINE         PTSUNNY   83  64  52 S6        29.96R HX  84
BURLINGTON     PTSUNNY   80  65  61 S5        29.94S HX  82
KENOSHA        PTSUNNY   84  64  50 S7        29.95S HX  85
FOND DU LAC    CLOUDY    77  63  61 CALM      29.93S
SHEBOYGAN      PTSUNNY   80  66  62 S7        29.92S HX  82
WEST BEND        N/A     77  63  61 S6        29.94S
JUNEAU         CLOUDY    73  64  73 S3        29.95S
$$

LSZ147-162-261700-
LAKE SUPERIOR

STATION/POSITION TIME  TEMP    WIND        PRES    WAVE
                       AIR SEA DIR/SP/G            HT/PER
                 (UTC) (F)     (DEG/KT/KT) (MB)    (FT/S)
W MID LAKE BUOY  1450   55 55   40/ 16/ 19 1013.0F   4/ 5
DEVILS ISLAND    1500   55      40/ 19/ 21 1013.5F
SAXON HARBOR     1540   60     310/  1/  2 1011.9F
$$

LMZ867-665-643>646-261700-
LAKE MICHIGAN

STATION/POSITION TIME  TEMP    WIND        PRES    WAVE
                       AIR SEA DIR/SP/G            HT/PER
                 (UTC) (F)     (DEG/KT/KT) (MB)    (FT/S)
S GREEN BAY BUOY 1530   68 70  220/  4/  4 1012.8R
N MID LAKE BUOY  1450   69 67  190/ 12/ 14 1012.9F   1
NORTHPORT PIER   1540   70     360/  3/  3 1012.5F
KEWAUNEE LAKESHO 1530   71     160/  3/  4 1012.1F
SHEBOYGAN LAKESH 1500   71     170/ 11/ 12 1012.6F
PORT WASHINGTON  1530   74     190/  5/  7 1014.2S
ATWATER BUOY     1409   66 62  150/  6/  6 1013.8R
MILWAUKEE LAKESH 1530   68     170/  2/  2   N/A
S MID LAKE BUOY  1450   72 71  170/ 10/ 10 1014.0F   1
KENOSHA   LAKESH 1500   71     180/  8/ 10 1013.9
$$

TC  - TEMPERATURE IN CELSIUS
VSB - VISIBILITY IN STATUTE MILES
WCI - WIND CHILL INDEX
HX  - HEAT INDEX





USA.gov is the U.S. government's official web portal to all federal, state and local government web resources and services.